ONEWEB-0082, 45452

Orbit data source: Space-Track

ONEWEB-0082, 45452 is a payload satellite owned by One Web (UK) in LEO that was launched on Sat, 21 Mar 2020 UTC via a SOYUZ-2-1B launch vehicle from the Tyuratam Missile And Space Complex (TTMTR). Payload-class satellites include a variety of spacecraft equipped with specific instruments for various scientific and technological missions. These include communications satellites like Starlink; space stations such as the ISS; scientific satellites like the Hubble; Earth observation satellites from companies like Planet Labs, Umbra, and HawkEye 360; GPS; miniature CubeSats for education and research; and military/defense satellites.

Loading next visibility...
Identifier
45452, 2020-020AE
Orbit
LEO
Last TLE update
13 hours ago
Origin
Manufacturer
One Web
Mission
Operational Commercial Communications
Bus & Motor
ARROW, Unknown motor
Mass
148 kg wet, ~140 kg dry
Launch date (UTC)
2020-03-21 (5 years ago)
Launch vehicle
SOYUZ-2-1B
Launch site
Tyuratam Missile And Space Complex (TTMTR)
Object type
Payload
Rocket body
Debris
Shape & HBR
Trap Box + 2 Pan, 5 m
Radar Cross Section
2.957 m², Medium (>0.1 m² and < 1m²)

Expand to show TLE details & history

TLE from 13 hours ago
0 ONEWEB-0082
1 45452U 20020AE  25193.96515327 -.00000518  00000-0 -14985-2 0  9997
2 45452  87.8828  88.6457 0001993  81.4875 278.6478 13.11417112258218
Epoch: 2025-07-12T23:09Z
TLE epoch observation values (Epoch: 2025-07-12T23:09:49.242Z)
Latitude
-0.0001°
Longitude
170.09536°
Altitude
1,220.344 km
Speed
7.244 km/s
True Right ascension
05h 54m 34s
True Declination
0° 00' 00"
Sunlit
Object was in daylight at epoch
Visualization orbit readout
Latitude
-4.68819°
Longitude
169.81623°
Altitude
1,221.162 km
Speed
7.244 km/s
Apparent Right ascension
08h 13m 29s
Apparent Declination
-28° 58' 40"
Sunlit
Object is in daylight
Visualization observer readout
Local Sidereal Time
00:23:28
Azimuth
98.239° ESE
Elevation
-38.369°
Doppler factor
1
Orbital elements
Apogee altitude
1,216.314 km
Perigee altitude
1,213.287 km
Semi-major axis
7,592.937 km
Eccentricity
0.0002
Inclination
87.8828°
RAAN
88.6457°
Arg. of periapsis
81.4875°
True anomaly
Unknown
Mean anomaly
278.6478°
Eccentric anomaly
Unknown
Mean motion
3.28041 °/min
Orbital period
109.74 mins
BSTAR
-0.0014985
Loading maneuver chart data...
Loading SW <> Apogee altitude chart data...
Loading historical data...
Loading historical data...
Loading historical data...
Loading historical data...
Loading historical data...
Loading historical data...
Loading historical data...

ONEWEB-0082 Visibility forecast

Observer location: undefined°, undefined°

Span
Click to sort rows by Start time (UTC) header in descending order
Start Az.
Max El. time (UTC)
Max El. Az.
Max El.
End time (UTC)
End Az.
8 mins2025-07-13 15:47:28.116Z108.758° ESE2025-07-13 15:51:28.116Z74.964° E16.288°2025-07-13 15:55:28.116Z39.663° NE
13 mins2025-07-13 17:34:28.116Z183.002° SSW2025-07-13 17:40:28.116Z245.248° WSW44.675°2025-07-13 17:47:28.116Z358.652° N
4 mins2025-07-13 19:30:28.116Z279.074° WNW2025-07-13 19:31:28.116Z287.722° WNW12.793°2025-07-13 19:34:28.116Z312.847° NW
4 mins2025-07-14 03:17:28.116Z54.321° ENE2025-07-14 03:19:28.116Z71.354° E12.627°2025-07-14 03:21:28.116Z88.255° E
13 mins2025-07-14 05:04:28.116Z2.321° NNE2025-07-14 05:10:28.116Z99.523° ESE44.661°2025-07-14 05:17:28.116Z177.129° S
7 mins2025-07-14 06:56:28.116Z313.707° NW2025-07-14 06:59:28.116Z286.055° WNW16.514°2025-07-14 07:03:28.116Z251.728° W
|